Total_Precipitation_Accumulation
0.11 0.09 0.10 0.13 0.10 0.06 0.02 0.01 0.00 0.00 0.00 0.00 0.01 0.01 0.01 0.02 0.03 0.04 0.05 0.05 0.03 0.05 0.16 0.34 0.51 0.60 0.65 0.66 0.62 0.59 0.59 0.60 0.65 0.69 0.69 0.69 0.71 0.74 0.80 0.81 0.77 0.75 0.71 0.73 0.80 0.83 0.82 0.79 0.73
0.14 0.15 0.17 0.19 0.10 0.05 0.02 0.01 0.00 0.00 0.00 0.00 0.01 0.01 0.02 0.03 0.02 0.03 0.07 0.09 0.05 0.06 0.15 0.27 0.48 0.59 0.64 0.66 0.66 0.68 0.71 0.71 0.76 0.77 0.74 0.70 0.71 0.75 0.80 0.79 0.78 0.75 0.71 0.70 0.73 0.71 0.71 0.64 0.56
0.23 0.28 0.26 0.21 0.09 0.04 0.02 0.01 0.00 0.00 0.00 0.00 0.00 0.01 0.02 0.04 0.04 0.05 0.08 0.11 0.09 0.09 0.16 0.31 0.51 0.62 0.65 0.71 0.72 0.73 0.76 0.81 0.84 0.83 0.82 0.81 0.82 0.81 0.82 0.80 0.78 0.72 0.69 0.68 0.70 0.66 0.63 0.59 0.55
0.35 0.39 0.31 0.18 0.05 0.03 0.02 0.02 0.00 0.00 0.00 0.00 0.01 0.01 0.02 0.03 0.04 0.08 0.11 0.17 0.15 0.15 0.20 0.36 0.54 0.68 0.72 0.76 0.76 0.77 0.81 0.85 0.87 0.84 0.82 0.84 0.92 0.91 0.82 0.77 0.79 0.73 0.69 0.69 0.68 0.65 0.64 0.58 0.53
0.47 0.42 0.30 0.13 0.02 0.01 0.01 0.01 0.01 0.00 0.00 0.01 0.01 0.02 0.04 0.04 0.05 0.10 0.15 0.22 0.23 0.23 0.27 0.41 0.60 0.74 0.81 0.84 0.88 0.91 0.93 0.93 0.90 0.88 0.84 0.84 0.86 0.90 0.86 0.77 0.74 0.71 0.69 0.70 0.69 0.65 0.64 0.62 0.56
0.57 0.45 0.24 0.09 0.02 0.01 0.00 0.01 0.01 0.01 0.01 0.02 0.03 0.03 0.06 0.08 0.10 0.13 0.15 0.20 0.25 0.29 0.36 0.53 0.76 0.86 0.90 0.94 0.91 0.98 1.05 1.07 1.04 0.98 0.93 0.91 0.89 0.86 0.86 0.78 0.76 0.76 0.72 0.67 0.61 0.60 0.58 0.58 0.57
0.62 0.44 0.20 0.06 0.02 0.01 0.01 0.01 0.01 0.01 0.01 0.02 0.03 0.05 0.08 0.14 0.18 0.17 0.17 0.21 0.25 0.30 0.42 0.60 0.83 0.94 1.06 1.08 1.02 1.01 1.03 1.11 1.11 1.06 1.02 0.98 0.92 0.86 0.83 0.80 0.75 0.75 0.77 0.73 0.63 0.58 0.56 0.51 0.50
0.67 0.57 0.27 0.08 0.03 0.02 0.02 0.02 0.02 0.02 0.02 0.02 0.04 0.06 0.08 0.15 0.20 0.25 0.27 0.27 0.33 0.38 0.50 0.66 0.84 0.97 1.07 1.16 1.11 1.06 1.05 1.08 1.15 1.11 1.06 1.02 1.00 0.96 0.88 0.78 0.81 0.79 0.75 0.78 0.73 0.65 0.66 0.60 0.50
0.81 0.75 0.36 0.12 0.07 0.05 0.04 0.04 0.04 0.03 0.04 0.05 0.05 0.06 0.09 0.16 0.24 0.33 0.40 0.43 0.45 0.53 0.65 0.78 0.90 1.02 1.15 1.21 1.16 1.19 1.18 1.20 1.25 1.23 1.20 1.14 1.11 1.10 1.00 0.83 0.80 0.84 0.81 0.79 0.78 0.73 0.72 0.71 0.57
0.90 0.71 0.31 0.12 0.10 0.10 0.07 0.07 0.06 0.07 0.06 0.07 0.07 0.10 0.15 0.26 0.36 0.38 0.41 0.45 0.49 0.57 0.71 0.85 0.95 1.08 1.26 1.32 1.32 1.38 1.30 1.26 1.29 1.20 1.17 1.20 1.18 1.19 1.10 1.02 0.91 0.88 0.89 0.88 0.85 0.81 0.78 0.74 0.62
0.75 0.52 0.26 0.15 0.15 0.16 0.13 0.09 0.08 0.10 0.08 0.08 0.10 0.13 0.21 0.30 0.40 0.43 0.44 0.47 0.50 0.59 0.72 0.87 1.01 1.16 1.34 1.37 1.35 1.36 1.36 1.28 1.31 1.31 1.20 1.18 1.23 1.19 1.21 1.17 1.17 1.10 1.02 0.99 0.97 0.96 0.88 0.80 0.71
0.64 0.42 0.27 0.21 0.20 0.23 0.20 0.16 0.13 0.10 0.08 0.09 0.12 0.16 0.22 0.32 0.37 0.42 0.51 0.57 0.61 0.67 0.78 0.92 1.08 1.26 1.43 1.44 1.46 1.40 1.30 1.25 1.21 1.31 1.34 1.28 1.21 1.11 1.04 1.03 1.02 1.03 1.01 1.00 0.98 0.95 0.89 0.88 0.81
0.61 0.43 0.30 0.23 0.22 0.23 0.23 0.20 0.18 0.11 0.07 0.11 0.15 0.21 0.26 0.31 0.35 0.43 0.55 0.64 0.70 0.74 0.84 0.94 1.08 1.22 1.43 1.65 1.63 1.59 1.45 1.30 1.26 1.30 1.34 1.31 1.25 1.15 1.04 0.96 0.98 0.95 0.91 0.90 0.91 0.82 0.77 0.76 0.74
0.54 0.44 0.35 0.28 0.25 0.24 0.25 0.22 0.22 0.14 0.12 0.17 0.21 0.23 0.29 0.34 0.40 0.50 0.58 0.65 0.73 0.80 0.92 1.02 1.14 1.22 1.38 1.59 1.67 1.67 1.60 1.53 1.48 1.36 1.31 1.33 1.33 1.25 1.15 1.02 0.98 0.96 0.91 0.90 0.86 0.81 0.74 0.69 0.64
0.55 0.58 0.46 0.32 0.27 0.27 0.32 0.31 0.25 0.17 0.20 0.21 0.24 0.26 0.32 0.40 0.43 0.49 0.56 0.68 0.80 0.87 0.98 1.11 1.22 1.35 1.39 1.47 1.68 1.71 1.70 1.64 1.62 1.48 1.43 1.45 1.42 1.39 1.34 1.22 1.07 0.95 0.90 0.91 0.93 0.88 0.82 0.75 0.67
0.75 0.83 0.66 0.36 0.29 0.31 0.45 0.41 0.23 0.22 0.29 0.29 0.29 0.32 0.39 0.47 0.49 0.52 0.56 0.71 0.90 0.95 1.03 1.22 1.32 1.41 1.43 1.42 1.62 1.72 1.76 1.79 1.75 1.71 1.62 1.60 1.58 1.53 1.48 1.42 1.31 1.17 1.05 0.97 0.95 0.88 0.84 0.78 0.73
1.05 0.93 0.63 0.40 0.32 0.38 0.47 0.45 0.29 0.26 0.35 0.37 0.37 0.37 0.42 0.52 0.54 0.57 0.61 0.69 0.82 0.90 1.04 1.27 1.37 1.42 1.47 1.48 1.56 1.74 1.75 1.78 1.85 1.90 1.84 1.77 1.77 1.69 1.61 1.53 1.51 1.48 1.35 1.17 1.04 0.96 0.87 0.79 0.73
1.01 0.74 0.52 0.44 0.36 0.40 0.46 0.41 0.31 0.31 0.37 0.36 0.38 0.39 0.42 0.49 0.50 0.58 0.65 0.75 0.81 0.91 1.08 1.30 1.49 1.54 1.56 1.62 1.62 1.75 1.88 1.75 1.68 1.78 1.84 1.84 1.88 1.82 1.76 1.65 1.56 1.61 1.56 1.45 1.28 1.11 0.99 0.89 0.80
0.70 0.69 0.55 0.41 0.39 0.44 0.44 0.42 0.37 0.33 0.35 0.33 0.29 0.35 0.43 0.45 0.48 0.58 0.66 0.80 0.90 0.98 1.09 1.27 1.45 1.56 1.59 1.61 1.60 1.55 1.67 1.72 1.58 1.49 1.65 1.83 1.93 2.00 1.99 1.84 1.73 1.69 1.63 1.48 1.41 1.36 1.24 1.10 0.99
0.74 0.75 0.58 0.42 0.42 0.52 0.50 0.47 0.38 0.32 0.34 0.31 0.29 0.32 0.41 0.46 0.50 0.56 0.65 0.78 0.87 0.98 1.05 1.21 1.44 1.53 1.50 1.46 1.52 1.52 1.55 1.61 1.62 1.51 1.52 1.66 1.87 2.05 2.21 2.10 1.92 1.81 1.74 1.67 1.54 1.47 1.44 1.35 1.18
0.77 0.66 0.54 0.52 0.54 0.62 0.66 0.63 0.39 0.32 0.31 0.31 0.33 0.35 0.43 0.46 0.50 0.55 0.62 0.72 0.85 1.00 1.05 1.08 1.30 1.56 1.57 1.53 1.63 1.68 1.76 1.78 1.77 1.64 1.50 1.54 1.64 1.76 1.88 1.99 1.89 1.88 1.83 1.77 1.68 1.55 1.50 1.51 1.37
0.73 0.42 0.45 0.56 0.75 0.80 0.73 0.89 0.49 0.34 0.32 0.31 0.35 0.41 0.45 0.48 0.51 0.57 0.63 0.74 0.83 0.98 1.16 1.17 1.23 1.45 1.64 1.63 1.60 1.59 1.66 1.67 1.65 1.57 1.47 1.47 1.58 1.66 1.70 1.79 1.85 1.75 1.69 1.65 1.64 1.59 1.48 1.51 1.52
0.56 0.39 0.47 0.63 0.84 0.87 0.70 0.88 0.57 0.35 0.37 0.31 0.30 0.35 0.39 0.45 0.53 0.60 0.66 0.77 0.90 1.03 1.22 1.31 1.34 1.35 1.53 1.59 1.53 1.51 1.50 1.54 1.63 1.64 1.56 1.50 1.57 1.68 1.73 1.73 1.80 1.85 1.74 1.58 1.52 1.57 1.57 1.52 1.47
0.52 0.60 0.75 0.88 1.18 1.25 0.56 0.60 0.59 0.48 0.48 0.38 0.32 0.36 0.38 0.46 0.58 0.62 0.70 0.84 0.98 1.11 1.27 1.38 1.44 1.35 1.40 1.61 1.58 1.45 1.42 1.42 1.50 1.60 1.69 1.66 1.61 1.65 1.72 1.74 1.71 1.71 1.76 1.73 1.57 1.50 1.54 1.52 1.46
0.82 1.20 1.82 1.95 1.79 1.03 0.32 0.38 0.55 0.46 0.44 0.41 0.39 0.42 0.41 0.46 0.57 0.63 0.72 0.86 0.95 1.06 1.20 1.34 1.38 1.38 1.37 1.50 1.60 1.50 1.39 1.38 1.35 1.41 1.52 1.61 1.62 1.58 1.60 1.66 1.68 1.63 1.62 1.66 1.64 1.57 1.53 1.52 1.52
0.86 1.05 1.43 1.40 0.90 0.43 0.26 0.39 0.47 0.39 0.33 0.33 0.34 0.39 0.40 0.41 0.48 0.58 0.67 0.80 0.90 0.93 1.04 1.20 1.29 1.29 1.32 1.44 1.61 1.61 1.48 1.44 1.33 1.32 1.41 1.47 1.49 1.46 1.44 1.46 1.51 1.49 1.44 1.46 1.53 1.51 1.46 1.48 1.53
0.78 0.81 0.75 1.01 0.67 0.46 0.38 0.36 0.36 0.27 0.24 0.27 0.30 0.34 0.38 0.40 0.46 0.51 0.61 0.67 0.73 0.84 0.93 1.04 1.22 1.31 1.31 1.34 1.52 1.72 1.70 1.55 1.42 1.29 1.33 1.37 1.39 1.42 1.45 1.43 1.41 1.33 1.30 1.29 1.29 1.34 1.32 1.35 1.40
0.68 0.76 0.91 1.27 1.06 0.64 0.39 0.35 0.47 0.38 0.33 0.30 0.31 0.33 0.34 0.38 0.48 0.52 0.56 0.59 0.65 0.75 0.84 0.93 1.11 1.24 1.29 1.29 1.35 1.55 1.79 1.71 1.59 1.53 1.37 1.34 1.34 1.38 1.44 1.45 1.42 1.34 1.24 1.24 1.24 1.20 1.16 1.23 1.26
0.72 0.91 1.09 1.15 0.91 0.79 0.52 0.46 0.51 0.44 0.37 0.34 0.32 0.31 0.32 0.36 0.44 0.48 0.51 0.58 0.64 0.70 0.81 0.91 1.02 1.13 1.19 1.20 1.24 1.34 1.56 1.74 1.74 1.66 1.50 1.34 1.33 1.31 1.30 1.33 1.36 1.32 1.25 1.22 1.28 1.25 1.19 1.21 1.22
0.66 0.79 0.94 1.18 0.89 0.60 0.58 0.52 0.35 0.30 0.31 0.30 0.30 0.29 0.31 0.35 0.38 0.43 0.47 0.56 0.60 0.66 0.78 0.85 0.93 1.07 1.15 1.17 1.20 1.27 1.35 1.50 1.71 1.65 1.50 1.33 1.29 1.31 1.31 1.28 1.30 1.28 1.28 1.26 1.27 1.24 1.19 1.19 1.20